Meteo pe oră la Dzikowa

Astăzi, 2 Martie, Marţi

Timp Temperatura Precipitaţii Vânt Presiune Umiditate
00:00 +4°C° 0 mm 1 m/s 760 mmHg 88%
01:00 +3°C° 0 mm 1 m/s 760 mmHg 89%
02:00 +3°C° 0 mm 1 m/s 760 mmHg 89%
03:00 +3°C° 0 mm 1 m/s 760 mmHg 88%
04:00 +3°C° 0 mm 1 m/s 759 mmHg 87%
05:00 +3°C° 0 mm 1 m/s 759 mmHg 86%
06:00 +3°C° 0 mm 1 m/s 759 mmHg 85%
07:00 +3°C° 0 mm 1 m/s 760 mmHg 84%
08:00 +5°C° 0 mm 1 m/s 760 mmHg 77%
09:00 +7°C° 0 mm 1 m/s 760 mmHg 70%
10:00 +9°C° 0 mm 1 m/s 760 mmHg 63%
11:00 +11°C° 0 mm 1 m/s 760 mmHg 58%
12:00 +12°C° 0 mm 1 m/s 759 mmHg 54%
13:00 +13°C° 0 mm 1 m/s 759 mmHg 49%
14:00 +13°C° 0 mm 1 m/s 759 mmHg 51%
15:00 +13°C° 0 mm 1 m/s 759 mmHg 53%
16:00 +13°C° 0 mm 1 m/s 759 mmHg 55%
17:00 +12°C° 0 mm 1 m/s 758 mmHg 60%
18:00 +9°C° 0 mm 0 m/s 758 mmHg 65%
19:00 +8°C° 0 mm 0 m/s 758 mmHg 69%
20:00 +7°C° 0 mm 0 m/s 758 mmHg 71%
21:00 +7°C° 0 mm 0 m/s 758 mmHg 73%
22:00 +6°C° 0 mm 0 m/s 758 mmHg 74%
23:00 +6°C° 0 mm 0 m/s 758 mmHg 75%

Mâine, 3 Martie, Miercuri

Timp Temperatura Precipitaţii Vânt Presiune Umiditate
00:00 +6°C° 0 mm 1 m/s 758 mmHg 76%
01:00 +6°C° 0 mm 1 m/s 758 mmHg 77%
02:00 +6°C° 0 mm 1 m/s 758 mmHg 77%
03:00 +5°C° 0 mm 1 m/s 757 mmHg 77%
04:00 +5°C° 0 mm 1 m/s 757 mmHg 77%
05:00 +5°C° 0 mm 1 m/s 757 mmHg 75%
06:00 +5°C° 0 mm 1 m/s 757 mmHg 74%
07:00 +5°C° 0 mm 1 m/s 757 mmHg 72%
08:00 +7°C° 0 mm 1 m/s 756 mmHg 66%
09:00 +9°C° 0 mm 1 m/s 756 mmHg 59%
10:00 +11°C° 0 mm 1 m/s 756 mmHg 53%
11:00 +12°C° 0 mm 1 m/s 756 mmHg 49%
12:00 +13°C° 0 mm 1 m/s 755 mmHg 46%
13:00 +14°C° 0 mm 1 m/s 755 mmHg 42%
14:00 +14°C° 0 mm 1 m/s 754 mmHg 45%
15:00 +14°C° 0 mm 1 m/s 753 mmHg 47%
16:00 +14°C° 0 mm 2 m/s 753 mmHg 50%
17:00 +12°C° 0 mm 2 m/s 752 mmHg 57%
18:00 +9°C° 0 mm 2 m/s 752 mmHg 64%
19:00 +7°C° 0 mm 2 m/s 752 mmHg 71%
20:00 +7°C° 0 mm 3 m/s 752 mmHg 71%
21:00 +7°C° 0 mm 3 m/s 751 mmHg 71%
22:00 +5°C° 0 mm 3 m/s 751 mmHg 72%
23:00 +5°C° 0 mm 3 m/s 750 mmHg 72%

Poimâine, 4 Martie, Joi

Timp Temperatura Precipitaţii Vânt Presiune Umiditate
00:00 +5°C° 0 mm 3 m/s 750 mmHg 72%
01:00 +5°C° 0 mm 3 m/s 749 mmHg 72%
02:00 +5°C° 0 mm 3 m/s 749 mmHg 74%
03:00 +5°C° 0 mm 3 m/s 748 mmHg 76%
04:00 +5°C° 0 mm 3 m/s 748 mmHg 78%
05:00 +4°C° 0 mm 3 m/s 748 mmHg 81%
06:00 +4°C° 0 mm 3 m/s 747 mmHg 83%
07:00 +4°C° 0 mm 3 m/s 747 mmHg 85%
08:00 +6°C° 0 mm 4 m/s 747 mmHg 80%
09:00 +7°C° 0 mm 4 m/s 746 mmHg 75%
10:00 +9°C° 0 mm 5 m/s 746 mmHg 69%
11:00 +10°C° 0 mm 5 m/s 746 mmHg 65%
12:00 +10°C° 0 mm 5 m/s 745 mmHg 61%
13:00 +12°C° 0 mm 5 m/s 745 mmHg 57%
14:00 +12°C° 0 mm 5 m/s 745 mmHg 60%
15:00 +11°C° 0 mm 4 m/s 744 mmHg 62%
16:00 +11°C° 0 mm 4 m/s 743 mmHg 64%
17:00 +8°C° 0.5 mm 4 m/s 743 mmHg 72%
18:00 +7°C° 0.5 mm 4 m/s 743 mmHg 80%
19:00 +5°C° 0.5 mm 4 m/s 743 mmHg 87%
20:00 +5°C° 0.4 mm 3 m/s 744 mmHg 89%
21:00 +4°C° 0.4 mm 3 m/s 744 mmHg 90%
22:00 +3°C° 0.4 mm 3 m/s 744 mmHg 91%
23:00 +3°C° 0.1 mm 3 m/s 744 mmHg 92%

5 Martie, Vineri

Timp Temperatura Precipitaţii Vânt Presiune Umiditate
00:00 +2°C° 0.1 mm 3 m/s 744 mmHg 93%
01:00 +2°C° 0.1 mm 3 m/s 744 mmHg 94%
02:00 +1°C° 0.3 mm 3 m/s 744 mmHg 95%
03:00 +1°C° 0.3 mm 3 m/s 744 mmHg 95%
04:00 +1°C° 0.3 mm 3 m/s 744 mmHg 95%
05:00 -1°C° 0.4 mm 4 m/s 745 mmHg 92%
06:00 -2°C° 0.4 mm 4 m/s 745 mmHg 89%
07:00 -3°C° 0.4 mm 4 m/s 746 mmHg 86%
08:00 -2°C° 0.1 mm 4 m/s 746 mmHg 81%
09:00 -2°C° 0.1 mm 4 m/s 747 mmHg 75%
10:00 -1°C° 0.1 mm 4 m/s 747 mmHg 70%
11:00 -1°C° 0 mm 5 m/s 748 mmHg 65%
12:00 0°C° 0 mm 5 m/s 748 mmHg 61%
13:00 +1°C° 0 mm 5 m/s 749 mmHg 56%
14:00 +1°C° 0 mm 5 m/s 749 mmHg 55%
15:00 +1°C° 0 mm 5 m/s 749 mmHg 53%
16:00 +1°C° 0 mm 4 m/s 749 mmHg 52%
17:00 0°C° 0.1 mm 4 m/s 750 mmHg 57%
18:00 0°C° 0.1 mm 3 m/s 751 mmHg 62%
19:00 -1°C° 0.1 mm 3 m/s 752 mmHg 67%
20:00 -1°C° 0 mm 3 m/s 752 mmHg 69%
21:00 -2°C° 0 mm 3 m/s 753 mmHg 70%
22:00 -2°C° 0 mm 3 m/s 753 mmHg 71%
23:00 -2°C° 0 mm 3 m/s 754 mmHg 73%

6 Martie, Sâmbătă

Timp Temperatura Precipitaţii Vânt Presiune Umiditate
00:00 -4°C° 0 mm 3 m/s 754 mmHg 74%
01:00 -4°C° 0 mm 3 m/s 754 mmHg 76%
02:00 -4°C° 0 mm 3 m/s 755 mmHg 78%
03:00 -4°C° 0 mm 3 m/s 755 mmHg 79%
04:00 -5°C° 0 mm 3 m/s 755 mmHg 81%
05:00 -5°C° 0 mm 3 m/s 756 mmHg 80%
06:00 -5°C° 0 mm 3 m/s 756 mmHg 79%
07:00 -4°C° 0 mm 2 m/s 756 mmHg 79%
08:00 -2°C° 0 mm 3 m/s 757 mmHg 70%
09:00 -2°C° 0 mm 4 m/s 757 mmHg 61%
10:00 -1°C° 0 mm 4 m/s 757 mmHg 52%
11:00 0°C° 0 mm 4 m/s 757 mmHg 48%
12:00 +1°C° 0 mm 4 m/s 757 mmHg 45%
13:00 +1°C° 0 mm 4 m/s 757 mmHg 41%
14:00 +1°C° 0 mm 4 m/s 757 mmHg 41%
15:00 +1°C° 0 mm 4 m/s 756 mmHg 41%
16:00 +1°C° 0 mm 4 m/s 756 mmHg 41%
17:00 0°C° 0 mm 4 m/s 756 mmHg 47%
18:00 -1°C° 0 mm 4 m/s 756 mmHg 52%
19:00 -1°C° 0 mm 3 m/s 756 mmHg 58%
20:00 -2°C° 0 mm 3 m/s 756 mmHg 58%
21:00 -2°C° 0 mm 3 m/s 756 mmHg 58%
22:00 -3°C° 0 mm 4 m/s 756 mmHg 57%
23:00 -3°C° 0 mm 4 m/s 755 mmHg 57%

7 Martie, Duminică

Timp Temperatura Precipitaţii Vânt Presiune Umiditate
00:00 -3°C° 0 mm 4 m/s 755 mmHg 56%
01:00 -3°C° 0 mm 4 m/s 755 mmHg 56%
02:00 -3°C° 0 mm 4 m/s 754 mmHg 56%
03:00 -3°C° 0 mm 4 m/s 754 mmHg 57%
04:00 -3°C° 0 mm 4 m/s 753 mmHg 58%
05:00 -3°C° 0 mm 4 m/s 753 mmHg 58%
06:00 -3°C° 0 mm 4 m/s 753 mmHg 58%
07:00 -3°C° 0 mm 4 m/s 752 mmHg 58%
08:00 -1°C° 0 mm 5 m/s 752 mmHg 55%
09:00 0°C° 0 mm 5 m/s 752 mmHg 52%
10:00 +1°C° 0 mm 6 m/s 751 mmHg 48%
11:00 +2°C° 0 mm 6 m/s 751 mmHg 47%
12:00 +3°C° 0 mm 6 m/s 750 mmHg 46%
13:00 +4°C° 0 mm 6 m/s 750 mmHg 45%
14:00 +4°C° 0 mm 6 m/s 749 mmHg 46%
15:00 +4°C° 0 mm 6 m/s 748 mmHg 47%
16:00 +3°C° 0 mm 6 m/s 748 mmHg 48%
17:00 +2°C° 0 mm 5 m/s 748 mmHg 54%
18:00 +1°C° 0 mm 5 m/s 747 mmHg 61%
19:00 -1°C° 0 mm 4 m/s 747 mmHg 67%
20:00 -1°C° 0 mm 4 m/s 747 mmHg 71%
21:00 -1°C° 0 mm 4 m/s 747 mmHg 74%
22:00 -1°C° 0 mm 5 m/s 747 mmHg 77%
23:00 -2°C° 0.1 mm 5 m/s 747 mmHg 82%
Arată mai mult

Formular de consimțământ

Meteoprog și furnizorii noștri de servicii pot stoca și accesa date personale, precum cookies, identificatori de dispozitiv sau alte tehnologii similare pe dispozitivul dumneavoastră și procesa astfel de date pentru a personaliza conținutul și reclamele, dar și pentru a oferi caracteristici de social media și pentru a analiza traficul.

  • Stocarea și/sau accesarea informațiilor pe dispozitivul dumneavoastră

    Cookies, identificatori de dispozitiv sau alte informații pot fi stocate sau accesate pe dispozitiv în scopurile indicate mai sus.

  • Reclame și conținut personalizat, evaluarea reclamelor și a conținutului, informații despre audiențe și dezvoltarea produselor

    Reclamele și conținutul pot fi personalizate pe baza unui profil. Pot fi adăugate date suplimentare pentru a personaliza mai bine reclamele și conținutul. Performanța reclamelor și conținutului poate fi măsurată. Pot fi obținute informații despre utilizatorii care au văzut reclamele și conținutul. Aceste date pot fi utilizate pentru a dezvolta sau îmbunătăți experiența utilizatorilor, sistemele și software-ul.

Dând clic pe ‘Sunt de acord’, permiteți utilizarea cookie-urilor menționate, a identificatorilor de dispozitiv, balizelor web sau altor tehnologii similare. Setările pot fi modificate din browser-ul dispozitivului dumneavoastră.

În anumite scopuri, interesele legitime pot prima asupra consimțământului. Puteți citi mai multe informații în acest sens în Politica privind Confidențialitatea Datelor și Cookie.